Volver al catálogo

SL-8 R/B

ActivoLEO
NORAD 12328·ROCKET BODY·🇷🇺 Russia

Lanzado Mar 6, 1981 desde Plesetsk Cosmodrome

Loading…

Próximos Pases (próximas 24 horas)

TLE

ActualizadoSource: Space-Track

Época: Sep 14, 2026, 04:35 UTC

1 12328U 81022J   26257.19158050 -.00000039  00000-0 -21325-3 0  9990
2 12328  74.0249 180.2267 0150611 243.8131 270.8289 12.23771401 33815

Sigue SL-8 R/B en tiempo real con AllMySat

Download on the App Store